Location: Le Petit-Vavre
(46.5081°N, 1.5239°E)
Time: 15:21:36
(UTC+00:00)

USA 186 - Pass Details

Date: 03 March 2021
Orbit: 261 x 429 km, 96.9° (Epoch: 15 April)

Event Time Altitude Azimuth Distance (km) Brightness Sun altitude
Exits shadow 19:59:54 13° 316° (NW) 998 4.4 -24.1°
Drops below altitude 10° 20:00:21 10° 323° (NW) 1,159 4.7 -24.2°
Sets 20:02:27 0° 337° (NNW) 2,021 5.8 -24.6°
